Hourly Data Report for November 14, 2012

BAGOTVILLE A
QUEBEC

48°20'00.000" N
71°00'00.000" W
159.10 m
7060400
71727
YBG

Download Data

Hourly Data (November 2012)
Hourly Data Report for November 14, 2012
TIME
LST
Temp Definition
°C
Dew Point Definition
°C
Rel Hum Definition
%
Precip. Amount Definition
mm

Wind Dir Definition
10's deg

Wind Spd Definition
km/h
Visibility Definition
km
Stn Press Definition
kPa
Hmdx Definition


Wind Chill Definition


Weather Definition


00:00 0.6 -2.1 82   28 9 24.1 101.17     Cloudy
01:00 0.2 -1.8 86   29 9 24.1 101.20     Cloudy
02:00 0.0 -5.6 66   30 9 24.1 101.28   -3 Mostly Cloudy
03:00 -1.0 -3.8 81   29 13 24.1 101.29   -5 Mainly Clear
04:00 -2.4 -5.9 77   22 9 24.1 101.34   -6 Mainly Clear
05:00 -3.2 -6.0 81   26 7 24.1 101.44   -6 Mainly Clear
06:00 -2.4 -5.0 82   31 6 24.1 101.52   -5 Mostly Cloudy
07:00 -1.8 -6.1 72   28 7 40.2 101.57   -4 Mostly Cloudy
08:00 -1.6 -5.2 76   28 7 40.2 101.65   -4 Mostly Cloudy
09:00 -0.8 -6.1 67   29 9 40.2 101.72   -4 Mostly Cloudy
10:00 -0.1 -6.4 62   31 7 40.2 101.77   -3 Cloudy
11:00 0.1 -6.5 61   31 9 40.2 101.76     Cloudy
12:00 0.0 -4.6 71   29 13 40.2 101.73   -4 Cloudy
13:00 0.1 -5.5 66   32 6 40.2 101.71     Cloudy
14:00 0.1 -5.5 66   32 6 40.2 101.71     Cloudy
15:00 0.1 -5.5 66   32 6 40.2 101.71     Cloudy
16:00 -0.1 -6.4 62   32 9 40.2 101.72   -3 Cloudy
17:00 -0.3 -6.0 65   34 6 24.1 101.74   -2 Cloudy
18:00 -0.5 -6.3 65   30 7 24.1 101.76   -3 Cloudy
19:00 -0.7 -6.3 66   27 6 24.1 101.75   -3 Cloudy
20:00 -0.7 -6.3 66   34 4 24.1 101.77   -2 Cloudy
21:00 -0.8 -5.7 69     0 24.1 101.78     Cloudy
22:00 -1.1 -5.8 70   28 6 24.1 101.75   -3 Cloudy
23:00 -1.7 -5.3 76   27 6 24.1 101.73   -4 Cloudy

Notes on Data Quality.

Legend

  • E = Estimated
  • M = Missing
  • NA = Not Available*
  • [empty] = Indicates an unobserved value
Date modified: